Retour au catalogue

STARLINK-35639

ActifCommunicationsVLEO
NORAD 66382·PAYLOAD·🇺🇸 United States

Lancé Nov 8, 2025 depuis Cape Canaveral Space Force Station

Loading…

Prochains Passages (prochaines 24 heures)

TLE

FraisSource: CelesTrak SupGP

Époque: Sep 14, 2026, 22:51 UTC

1 66382C 25257C   26257.95256944  .00029804  00000+0  88077-3 0  2574
2 66382  53.1591  55.7975 0000993  67.2033 177.1621 15.34369026    16

Suivez STARLINK-35639 en temps réel avec AllMySat

Download on the App Store